Location: Wanzleben
(52.0609°N, 11.4408°E)
Time: 10:21:05
(UTC+00:00)

Cosmos 1844 - Pass Details

Date: 18 September 2020
Orbit: 824 x 866 km, 70.9° (Epoch: 25 October)

Event Time Altitude Azimuth Distance (km) Brightness Sun altitude
Rises 19:27:35 0° 192° (SSW) 3,412 6.7 -19.4°
Reaches altitude 10° 19:30:05 10° 188° (S) 2,474 5.9 -19.7°
Maximum altitude 19:35:35 54° 113° (ESE) 1,027 3.7 -20.4°
Drops below altitude 10° 19:41:04 10° 38° (NE) 2,462 6.1 -21.1°
Sets 19:43:33 0° 34° (NNE) 3,394 6.8 -21.4°
